Tracking 18030 objects as of 28-March-2017
HD Live streaming from Space Station
objects crossing your sky now

DELTA 1 DEB

Track DELTA 1 DEB now!
10-day predictions


NORAD ID: 15205
Int'l Code: 1984-088E
Perigee: 27,740.6 km
Apogee: 43,999.6 km
Inclination: 28.7 °
Period: 1,440.0 minutes
Semi major axis: 42241 km
RCS: 0.0578 m2 (small)
Launch date: August 16, 1984
Source: United States (US)
Launch site: AIR FORCE EASTERN TEST RANGE (AFETR)

Note: This is SATELLITE DEBRIS
Your satellite tracking list
Your tracking list is empty





NASA's NSSDC Master Catalog

Two Line Element Set (TLE):
1 15205U 84088E   17084.50010271 +.00000324 +00000-0 +16527-3 0  9990
2 15205 028.7233 197.7681 1924544 184.1526 282.1102 10.92737965868675
Source of the keplerian elements: AFSPC